Temp
55 54 54 55 55 55 54 55 55 55 55 56 56 57 56 56 55 54 56 56 57 56 61 62 66 64 65 64 63 65 65 65 66 63 62 61 60 63 60 60 60 61 59 60 60 58 56 64 67 64 64 68 68 69
54 54 54 54 54 54 55 55 55 55 55 56 56 56 56 56 55 55 55 56 55 55 61 60 66 69 68 69 67 64 62 61 65 63 60 61 59 59 58 58 60 58 62 62 57 60 60 63 63 66 70 66 68 68
54 54 54 54 54 54 55 55 55 55 55 55 56 56 56 55 55 54 51 50 55 55 60 61 66 69 69 69 74 65 66 64 63 63 64 62 59 62 59 60 59 59 60 60 57 60 61 64 67 70 71 69 70 70
54 54 54 54 54 54 54 54 55 55 55 55 56 56 56 55 54 54 50 54 53 54 52 62 68 66 70 71 71 71 69 65 64 65 64 63 61 61 62 61 62 64 61 57 55 59 62 64 67 68 68 69 68 69
53 53 53 53 54 54 54 54 54 55 55 55 55 55 55 55 54 54 52 56 56 55 53 58 64 67 70 69 71 69 68 66 66 64 63 63 62 60 60 62 63 64 60 61 60 64 65 64 67 69 68 66 67 68
53 53 53 53 53 54 54 54 54 54 54 55 55 55 54 54 54 55 56 55 58 57 53 52 64 63 67 70 69 66 66 64 66 65 65 63 60 62 60 59 62 65 64 68 65 68 68 68 68 70 68 67 67 66
53 53 53 53 53 54 54 54 54 54 54 54 54 53 53 54 55 57 56 57 53 55 54 52 57 65 64 66 66 67 64 64 65 64 62 64 62 62 61 59 64 64 65 63 67 66 62 66 66 68 67 66 64 65
53 53 53 53 53 53 53 53 53 54 54 54 53 53 53 53 53 56 61 55 54 57 56 50 54 59 64 64 63 62 64 64 62 63 60 62 60 61 57 62 63 64 64 64 65 68 70 67 66 64 65 64 62 62
53 53 53 53 53 53 53 53 54 53 53 53 53 53 55 56 56 58 58 55 57 57 51 50 49 53 63 61 61 61 62 59 60 60 61 61 59 56 62 62 61 62 64 63 65 66 66 66 64 63 63 62 61 61
53 53 53 53 53 53 53 53 53 53 53 53 58 58 53 55 56 58 55 55 55 55 53 49 54 52 58 59 59 59 59 59 56 59 60 58 59 64 62 63 66 64 66 66 62 60 62 61 62 62 61 62 61 60
53 53 53 53 53 53 53 53 53 52 54 54 48 48 54 56 58 56 51 51 52 50 52 52 52 50 58 53 53 53 54 55 52 56 56 56 56 58 59 60 64 66 66 68 68 67 67 66 63 62 60 60 59 59
53 53 53 53 53 53 53 53 53 53 52 51 48 50 51 54 52 49 49 51 48 47 52 50 51 51 53 53 52 52 50 50 49 57 55 52 56 56 58 60 62 66 66 66 66 64 64 63 62 60 59 59 59 59
52 52 52 52 53 53 53 53 53 53 52 52 48 47 48 51 40 44 44 48 48 52 54 53 51 54 54 55 52 50 47 48 55 50 49 52 55 56 58 61 61 64 65 64 63 63 62 61 60 59 59 59 59 59
52 52 52 52 53 53 53 53 53 53 51 47 46 37 45 45 48 49 51 50 55 54 54 52 52 53 54 53 49 46 54 53 48 45 49 53 53 55 57 60 60 61 63 63 61 61 61 60 59 59 59 59 59 59
52 52 52 52 53 53 53 52 52 54 52 47 48 38 46 53 53 53 52 51 55 55 55 53 53 52 50 49 51 48 47 46 48 48 54 53 55 55 56 57 59 60 61 61 60 61 60 60 59 59 59 60 60 60
52 52 53 53 53 53 52 52 54 53 49 46 45 44 52 50 51 54 53 52 56 52 52 52 50 48 48 47 48 48 47 46 51 53 56 53 53 54 54 55 55 57 59 60 60 60 60 59 59 60 60 60 61 61
51 50 52 52 52 51 51 53 52 49 48 46 46 51 51 51 50 51 53 55 57 53 51 52 48 48 51 47 47 51 50 53 55 56 55 55 55 56 56 57 57 58 58 58 59 59 59 60 60 59 59 62 62 61
50 52 51 52 52 52 53 53 51 48 45 52 47 53 53 55 55 57 59 57 57 52 51 52 53 48 47 46 50 53 52 55 55 55 55 55 55 56 57 57 58 59 59 59 59 60 59 59 59 61 61 61 61 62
51 52 52 52 52 49 45 50 51 45 49 52 53 53 54 55 57 58 58 58 58 57 53 51 50 49 50 53 53 55 55 53 57 56 57 57 57 58 57 57 59 59 59 59 60 63 63 61 63 62 62 62 60 63
51 52 52 53 53 47 46 49 53 48 46 52 52 52 53 55 57 58 58 57 55 54 51 51 52 55 53 55 55 56 58 59 60 60 59 59 60 59 59 61 62 61 61 61 62 52 63 64 65 64 63 63 60 61
50 53 53 53 50 48 45 46 48 50 51 49 54 53 54 55 55 54 54 53 53 53 52 55 55 57 55 56 57 60 59 59 61 61 60 57 58 61 61 62 61 62 63 59 56 63 56 65 66 66 64 62 61 59
51 52 51 52 48 48 46 50 48 51 48 51 50 53 52 52 54 54 53 52 53 56 55 54 56 56 53 57 59 59 60 59 57 58 50 52 58 59 61 60 59 61 64 65 65 65 66 67 67 66 65 65 61 66
51 51 50 49 46 43 43 51 46 49 46 50 52 50 51 52 54 56 52 56 58 57 57 58 57 57 59 58 59 59 59 60 62 61 60 62 63 62 61 59 60 62 64 65 64 65 65 55 60 63 67 68 68 67
51 47 44 44 44 42 50 46 50 49 51 49 50 50 53 54 55 53 52 58 60 57 57 56 59 59 59 58 62 62 62 62 62 60 59 62 62 61 60 62 64 65 63 65 65 65 66 65 56 67 69 68 69 68
40 41 41 36 45 44 44 46 47 48 46 50 49 51 53 54 52 52 54 60 59 59 59 58 59 62 64 64 64 63 61 64 64 64 64 62 63 63 63 64 64 65 67 64 64 66 69 69 69 69 68 69 68 68
34 43 38 43 45 43 45 44 48 49 49 49 52 53 54 52 50 51 58 62 61 61 60 61 62 62 62 64 65 65 66 64 64 64 66 64 65 66 67 65 66 67 68 67 68 69 70 70 69 67 69 67 53 66
36 41 46 50 49 48 47 52 53 50 48 48 50 52 51 48 50 56 62 60 63 64 66 66 65 66 68 68 66 66 66 65 65 67 68 65 67 67 67 68 67 68 68 68 69 70 69 68 69 69 69 70 70 70
45 46 42 47 47 50 46 49 50 50 51 52 53 50 51 53 53 59 63 65 66 67 67 67 67 69 69 69 71 69 68 66 66 65 65 68 68 68 67 68 68 48 67 70 70 70 69 69 68 70 70 69 70 71
43 48 47 44 46 48 49 50 52 58 59 57 55 53 55 57 62 66 68 66 68 66 66 66 67 67 67 68 67 68 69 68 66 66 66 68 71 72 70 70 71 70 71 70 48 57 67 67 68 69 69 70 70 69
44 49 45 46 45 46 53 56 56 61 61 61 62 61 62 64 67 70 68 68 65 67 70 71 72 69 70 72 73 73 72 70 70 70 70 70 73 76 74 71 71 73 72 72 72 71 48 59 61 67 67 70 70 70
49 46 45 47 48 53 57 61 61 60 60 60 62 59 60 64 69 70 67 68 69 70 68 68 70 70 71 72 71 71 73 74 71 70 72 75 75 74 73 73 72 73 72 72 72 72 71 69 69 69 69 69 70 67
48 46 47 45 50 56 57 55 57 57 60 59 60 63 62 60 60 68 72 68 67 68 63 65 70 72 73 75 76 75 56 77 74 72 71 72 73 73 73 73 73 71 71 71 72 72 71 70 71 72 71 70 70 71
48 49 50 49 50 51 56 56 56 56 57 58 60 62 63 62 60 70 73 72 74 75 75 74 73 76 76 74 75 75 61 74 68 52 51 50 49 58 73 75 72 71 71 71 72 72 71 71 71 71 71 70 70 70
MSLP
1025.52 1025.18 1024.82 1024.46 1024.06 1023.62 1023.15 1022.67 1022.19 1021.64 1021.08 1020.55 1020.04 1019.59 1019.21 1018.79 1018.31 1017.91 1017.31 1017.22 1016.75 1015.65 1013.86 1013.18 1012.43 1011.83 1011.50 1011.14 1010.52 1010.58 1010.59 1010.13 1009.80 1009.43 1009.28 1009.17 1009.06 1009.21 1009.30 1009.42 1009.49 1009.34 1009.31 1009.13 1009.35 1009.38 1009.44 1009.95 1010.07 1010.02 1010.16 1010.37 1011.01 1011.83
1025.44 1025.14 1024.78 1024.40 1024.02 1023.59 1023.12 1022.63 1022.19 1021.70 1021.12 1020.58 1020.07 1019.61 1019.25 1018.95 1018.56 1018.08 1017.54 1017.40 1017.38 1016.43 1014.46 1013.74 1012.67 1012.17 1012.02 1011.52 1011.20 1011.14 1011.10 1010.84 1010.60 1010.27 1010.33 1010.12 1009.79 1009.94 1009.79 1009.46 1010.20 1010.19 1010.10 1009.89 1010.79 1010.53 1010.86 1010.92 1010.76 1010.94 1010.94 1011.18 1012.02 1012.49
1025.32 1025.05 1024.72 1024.31 1023.97 1023.51 1023.02 1022.58 1022.10 1021.63 1021.13 1020.59 1020.06 1019.60 1019.21 1018.91 1018.65 1018.44 1018.15 1017.86 1017.12 1016.14 1014.32 1013.27 1012.08 1011.72 1011.69 1011.61 1011.34 1011.22 1011.24 1011.38 1011.38 1011.52 1010.87 1010.68 1010.32 1010.26 1009.84 1009.74 1010.15 1010.70 1010.99 1010.68 1011.22 1011.60 1011.62 1011.57 1011.65 1011.69 1011.82 1012.25 1012.88 1013.35
1025.11 1024.89 1024.61 1024.22 1023.85 1023.42 1022.92 1022.43 1021.93 1021.42 1020.96 1020.48 1019.96 1019.50 1019.10 1018.79 1018.58 1018.44 1018.28 1017.96 1017.56 1016.78 1015.22 1012.77 1011.98 1011.68 1011.43 1011.33 1011.27 1011.20 1011.24 1011.72 1011.81 1011.70 1011.15 1010.80 1010.61 1010.81 1010.35 1010.29 1010.11 1010.55 1011.00 1011.24 1011.82 1012.11 1012.27 1012.34 1012.33 1012.48 1012.83 1013.20 1013.61 1014.09
1024.89 1024.69 1024.37 1024.03 1023.67 1023.24 1022.75 1022.25 1021.74 1021.22 1020.73 1020.22 1019.70 1019.24 1018.89 1018.59 1018.37 1018.18 1018.14 1017.80 1017.63 1017.32 1015.77 1013.53 1012.26 1011.54 1011.32 1011.20 1011.02 1011.24 1011.22 1011.38 1011.51 1011.51 1011.18 1010.82 1011.07 1011.18 1011.01 1010.72 1010.03 1010.27 1010.41 1010.42 1010.28 1011.05 1011.40 1012.06 1012.74 1013.00 1013.21 1013.67 1014.08 1014.38
1024.65 1024.45 1024.16 1023.85 1023.48 1023.03 1022.54 1022.00 1021.46 1020.91 1020.40 1019.85 1019.31 1018.79 1018.48 1018.26 1018.10 1017.84 1017.72 1017.72 1017.57 1017.44 1016.41 1014.33 1012.57 1011.67 1011.22 1010.96 1011.04 1011.22 1011.37 1011.49 1011.27 1011.07 1011.13 1011.30 1011.50 1011.40 1010.65 1010.07 1009.92 1010.10 1010.39 1010.28 1010.36 1011.13 1011.54 1012.28 1012.98 1013.27 1013.54 1013.97 1014.41 1014.73
1024.44 1024.21 1023.94 1023.63 1023.31 1022.87 1022.36 1021.80 1021.21 1020.60 1019.95 1019.33 1018.74 1018.29 1017.97 1017.88 1017.86 1017.71 1017.72 1017.64 1017.74 1017.61 1016.48 1014.70 1012.77 1011.89 1011.67 1011.30 1011.30 1011.39 1011.69 1011.61 1011.45 1011.08 1011.16 1011.22 1011.51 1011.27 1010.67 1009.91 1009.88 1010.22 1010.47 1010.85 1010.99 1011.39 1012.24 1012.61 1012.90 1013.53 1013.92 1014.42 1014.87 1015.18
1024.20 1023.97 1023.71 1023.38 1023.03 1022.62 1022.13 1021.55 1020.91 1020.21 1019.47 1018.79 1018.19 1017.75 1017.63 1017.69 1017.79 1017.43 1017.20 1017.21 1017.59 1017.18 1016.44 1015.19 1013.13 1012.26 1011.88 1011.29 1011.32 1011.78 1011.42 1011.61 1011.58 1011.30 1011.34 1011.10 1011.65 1011.34 1010.31 1010.00 1010.22 1010.51 1010.86 1011.19 1011.47 1011.60 1011.87 1012.85 1013.49 1014.08 1014.57 1014.95 1015.23 1015.49
1023.86 1023.64 1023.39 1023.08 1022.73 1022.32 1021.86 1021.30 1020.64 1019.84 1018.93 1018.23 1017.66 1017.50 1017.56 1017.50 1017.27 1017.16 1017.16 1017.35 1017.32 1017.31 1016.19 1015.52 1014.11 1012.55 1012.19 1011.86 1011.85 1011.92 1011.72 1011.31 1011.83 1011.10 1011.07 1011.11 1010.83 1010.32 1009.78 1009.90 1010.26 1010.49 1010.50 1011.20 1011.89 1012.12 1012.69 1013.22 1013.87 1014.42 1014.83 1015.21 1015.47 1015.67
1023.55 1023.35 1023.11 1022.83 1022.47 1022.06 1021.62 1021.09 1020.45 1019.49 1018.49 1017.73 1017.34 1017.52 1017.31 1017.38 1017.40 1017.07 1017.04 1016.94 1016.72 1016.57 1016.38 1015.40 1014.79 1013.63 1013.10 1012.42 1012.16 1012.10 1011.82 1011.33 1011.08 1011.12 1011.27 1010.89 1010.09 1009.83 1010.22 1010.21 1010.39 1011.02 1010.95 1011.36 1011.80 1012.65 1013.20 1013.73 1014.24 1014.70 1015.09 1015.40 1015.71 1015.92
1023.31 1023.09 1022.82 1022.54 1022.23 1021.89 1021.49 1020.98 1020.39 1019.46 1018.46 1018.43 1018.65 1018.42 1017.86 1017.35 1016.83 1016.45 1016.23 1016.06 1016.05 1015.72 1015.59 1015.10 1014.71 1014.16 1013.60 1013.28 1012.72 1012.71 1011.88 1011.79 1011.16 1011.12 1010.98 1010.54 1010.17 1010.38 1010.69 1010.60 1010.70 1011.06 1011.27 1011.60 1012.07 1012.69 1013.28 1013.78 1014.36 1014.86 1015.26 1015.56 1015.87 1015.96
1023.03 1022.90 1022.66 1022.32 1021.97 1021.63 1021.29 1020.88 1020.49 1020.13 1020.03 1019.95 1020.03 1019.39 1018.55 1017.36 1016.64 1016.20 1015.70 1015.63 1015.42 1015.10 1014.90 1014.74 1014.49 1014.40 1014.02 1013.88 1013.15 1013.01 1012.41 1012.34 1011.39 1011.39 1011.15 1010.58 1010.69 1011.01 1010.96 1010.90 1010.99 1011.18 1011.57 1012.08 1012.65 1013.21 1013.78 1014.28 1014.73 1015.09 1015.35 1015.55 1015.69 1015.79
1022.66 1022.48 1022.24 1021.96 1021.65 1021.27 1020.93 1020.68 1020.41 1020.11 1019.68 1019.59 1019.61 1018.93 1018.16 1017.25 1016.46 1015.70 1015.16 1014.93 1014.81 1014.60 1014.24 1014.31 1014.06 1014.00 1013.91 1013.72 1013.46 1013.07 1012.88 1012.28 1011.85 1011.45 1011.26 1011.09 1011.43 1011.62 1011.60 1011.49 1011.58 1011.74 1011.98 1012.52 1013.10 1013.60 1014.14 1014.56 1014.93 1015.13 1015.27 1015.46 1015.56 1015.56
1022.38 1022.20 1021.97 1021.69 1021.38 1021.00 1020.74 1020.43 1020.11 1019.78 1019.66 1019.42 1018.93 1018.42 1017.67 1016.61 1016.01 1015.49 1015.20 1014.99 1014.58 1014.29 1014.16 1014.24 1013.75 1013.52 1013.60 1013.30 1013.48 1013.14 1012.19 1011.86 1011.41 1011.36 1011.13 1011.50 1011.87 1012.19 1012.30 1012.24 1012.15 1012.31 1012.45 1012.81 1013.31 1013.83 1014.19 1014.50 1014.79 1015.03 1015.13 1015.25 1015.33 1015.32
1022.05 1021.82 1021.59 1021.29 1021.03 1020.76 1020.37 1020.00 1019.70 1019.55 1019.38 1019.10 1018.70 1017.87 1016.94 1016.16 1015.72 1015.28 1015.06 1014.90 1014.50 1014.36 1014.02 1014.01 1013.77 1013.77 1013.65 1013.57 1013.38 1013.14 1012.27 1011.58 1011.45 1011.28 1011.33 1011.79 1012.34 1012.76 1012.98 1013.01 1012.96 1012.98 1013.01 1013.17 1013.62 1013.87 1014.13 1014.45 1014.70 1014.80 1014.87 1014.94 1015.04 1015.01
1021.77 1021.44 1021.18 1021.09 1020.85 1020.43 1020.00 1019.55 1019.45 1019.43 1019.20 1018.89 1018.50 1017.60 1016.46 1016.09 1015.32 1014.92 1014.82 1014.63 1014.36 1014.16 1014.14 1013.99 1013.76 1013.72 1013.60 1013.43 1012.79 1011.95 1011.65 1011.31 1011.43 1011.57 1011.87 1012.29 1012.52 1012.93 1013.28 1013.35 1013.33 1013.38 1013.43 1013.54 1013.77 1013.96 1014.16 1014.33 1014.47 1014.51 1014.59 1014.58 1014.53 1014.54
1021.57 1021.30 1021.04 1020.92 1020.58 1020.04 1019.71 1019.51 1019.28 1018.97 1018.62 1018.20 1017.53 1016.88 1016.43 1015.90 1015.35 1014.87 1014.59 1014.37 1014.30 1014.14 1013.73 1013.62 1013.34 1013.07 1013.19 1012.84 1012.24 1011.97 1011.48 1011.45 1011.65 1011.82 1012.15 1012.53 1012.70 1012.89 1013.09 1013.17 1013.29 1013.41 1013.52 1013.64 1013.78 1013.90 1013.97 1014.12 1014.28 1014.27 1014.12 1013.99 1014.06 1014.07
1021.29 1020.96 1020.97 1020.78 1020.47 1019.96 1019.56 1019.28 1019.01 1018.64 1017.90 1017.14 1016.81 1016.00 1015.84 1015.31 1014.70 1014.19 1014.18 1014.24 1014.15 1013.97 1013.80 1013.47 1013.33 1013.11 1012.58 1012.20 1011.59 1011.46 1011.56 1011.72 1011.90 1012.03 1012.24 1012.48 1012.64 1012.87 1013.00 1013.00 1013.17 1013.34 1013.37 1013.45 1013.52 1013.57 1013.68 1013.79 1013.87 1013.80 1013.76 1013.68 1013.66 1013.42
1020.85 1020.82 1020.64 1020.50 1020.47 1020.31 1019.80 1019.09 1018.86 1018.14 1017.23 1016.73 1016.17 1015.80 1015.38 1014.67 1014.18 1013.91 1013.86 1013.90 1013.91 1013.88 1013.79 1013.62 1013.15 1012.65 1012.14 1011.89 1011.75 1011.62 1011.71 1011.80 1011.72 1011.90 1012.06 1012.28 1012.45 1012.62 1012.74 1012.87 1012.98 1013.08 1013.16 1013.26 1013.31 1013.28 1013.30 1013.41 1013.32 1013.38 1013.35 1013.33 1013.17 1012.84
1020.68 1020.46 1020.25 1020.06 1020.07 1020.09 1019.47 1018.80 1018.60 1017.96 1017.06 1016.32 1015.99 1015.32 1014.81 1014.14 1013.71 1013.52 1013.48 1013.53 1013.62 1013.65 1013.47 1012.98 1012.24 1011.85 1011.81 1011.83 1012.02 1011.86 1011.69 1011.66 1011.60 1011.55 1011.78 1012.12 1012.36 1012.50 1012.54 1012.58 1012.66 1012.86 1012.92 1013.07 1012.97 1013.22 1012.85 1012.81 1012.75 1012.87 1012.88 1012.76 1012.89 1012.50
1020.45 1020.11 1020.03 1020.08 1020.05 1020.02 1019.69 1018.77 1018.10 1017.49 1016.78 1016.14 1015.40 1015.06 1014.09 1013.74 1013.33 1013.09 1013.05 1013.29 1013.29 1012.84 1012.30 1011.91 1011.69 1011.73 1011.96 1012.00 1011.98 1011.83 1011.79 1011.74 1011.56 1011.62 1011.72 1011.98 1012.37 1012.31 1012.33 1012.41 1012.56 1012.63 1012.48 1012.68 1012.70 1012.44 1012.48 1012.26 1012.29 1012.39 1012.42 1012.36 1012.29 1012.26
1020.28 1020.11 1020.02 1019.88 1019.70 1019.46 1019.16 1018.41 1017.93 1017.36 1016.89 1015.64 1015.12 1014.47 1013.64 1013.12 1012.82 1012.81 1013.05 1012.79 1012.25 1011.53 1011.66 1011.57 1011.53 1011.60 1011.65 1011.65 1011.65 1011.78 1011.76 1011.82 1011.87 1011.86 1011.95 1012.04 1012.06 1012.11 1012.14 1012.31 1012.44 1012.21 1012.09 1012.04 1012.06 1011.96 1011.87 1011.89 1012.01 1012.02 1011.96 1011.80 1011.73 1011.47
1020.20 1020.12 1019.84 1019.65 1019.31 1018.91 1018.44 1018.06 1017.50 1016.64 1015.91 1014.88 1014.40 1013.76 1013.08 1012.74 1012.65 1012.87 1012.29 1011.66 1011.09 1011.21 1011.28 1011.38 1011.48 1011.58 1011.40 1011.60 1011.69 1011.75 1011.78 1011.73 1011.63 1011.80 1011.92 1011.91 1011.90 1011.97 1012.04 1012.12 1012.12 1011.91 1011.68 1011.63 1011.72 1011.65 1011.61 1011.80 1011.75 1011.71 1011.48 1011.28 1011.18 1011.02
1020.10 1019.93 1019.59 1019.17 1018.81 1018.12 1017.61 1017.12 1016.57 1015.82 1014.97 1014.30 1013.65 1012.87 1012.36 1012.20 1012.30 1012.05 1011.29 1010.57 1010.41 1010.89 1011.05 1011.19 1011.25 1011.25 1011.41 1011.46 1011.26 1011.36 1011.43 1011.53 1011.51 1011.64 1011.69 1011.67 1011.53 1011.61 1011.73 1011.66 1011.55 1011.49 1011.54 1011.43 1011.44 1011.38 1011.29 1011.19 1011.21 1011.00 1010.83 1010.77 1010.67 1010.57
1020.05 1019.68 1019.55 1018.91 1018.37 1017.71 1016.76 1016.00 1015.25 1014.69 1013.88 1013.30 1012.89 1012.23 1011.89 1011.99 1011.58 1011.08 1010.31 1009.71 1009.94 1010.19 1010.52 1010.80 1010.83 1010.60 1010.41 1010.55 1010.73 1010.91 1011.19 1011.07 1010.92 1010.86 1011.03 1011.21 1011.17 1011.20 1011.08 1011.06 1010.99 1010.98 1011.02 1011.01 1010.93 1010.79 1010.62 1010.69 1010.65 1010.58 1010.50 1010.44 1010.38 1010.28
1019.29 1018.69 1018.64 1017.86 1017.32 1016.92 1015.98 1014.97 1013.96 1013.39 1013.00 1012.53 1012.10 1011.91 1011.78 1011.48 1010.95 1010.14 1009.50 1009.15 1009.24 1009.45 1009.78 1009.93 1009.92 1009.94 1009.94 1010.07 1010.08 1010.18 1010.30 1010.69 1010.79 1010.55 1010.36 1010.65 1010.55 1010.39 1010.21 1010.23 1010.12 1010.09 1010.44 1010.55 1010.45 1010.27 1010.26 1010.30 1010.30 1010.30 1010.18 1010.20 1010.38 1010.17
1018.53 1017.76 1017.44 1017.26 1016.80 1016.30 1015.37 1014.27 1013.57 1013.07 1012.34 1011.75 1011.45 1011.38 1011.22 1010.67 1009.92 1009.41 1008.97 1008.94 1008.77 1008.77 1008.94 1009.21 1009.34 1009.27 1009.09 1009.25 1009.57 1009.89 1010.06 1010.22 1010.16 1010.03 1010.00 1010.11 1010.13 1010.11 1010.02 1009.75 1009.65 1009.96 1010.20 1010.28 1010.24 1010.17 1010.14 1010.19 1010.18 1010.11 1010.02 1009.94 1009.85 1009.77
1017.54 1017.14 1016.78 1016.47 1016.22 1015.73 1014.89 1013.85 1012.77 1011.86 1011.34 1011.13 1011.05 1010.66 1010.25 1009.65 1009.26 1008.83 1008.71 1008.60 1008.54 1008.59 1008.62 1008.73 1008.88 1008.87 1008.81 1008.85 1009.01 1009.27 1009.46 1009.56 1009.63 1009.78 1009.75 1009.51 1009.49 1009.52 1009.67 1009.67 1009.74 1009.95 1009.91 1009.98 1010.04 1010.17 1010.20 1010.21 1010.20 1010.07 1009.94 1009.71 1009.51 1009.41
1016.95 1016.57 1016.58 1015.92 1015.54 1014.87 1013.97 1013.11 1011.95 1011.05 1010.77 1010.66 1010.33 1009.92 1009.54 1009.25 1008.80 1008.38 1008.22 1008.30 1008.35 1008.40 1008.25 1008.17 1008.20 1008.37 1008.43 1008.49 1008.59 1008.67 1008.76 1008.77 1008.75 1008.65 1008.52 1008.26 1008.28 1008.39 1008.70 1008.95 1009.07 1009.31 1009.39 1009.58 1010.04 1010.10 1010.09 1010.19 1010.27 1010.19 1009.91 1009.63 1009.32 1009.03
1016.08 1016.25 1015.76 1015.11 1014.43 1013.40 1012.36 1011.86 1011.13 1010.73 1010.66 1010.49 1010.27 1009.79 1009.28 1008.64 1008.12 1007.97 1007.79 1007.69 1007.71 1007.43 1007.28 1007.26 1007.22 1007.51 1007.44 1007.37 1007.27 1007.42 1007.82 1007.93 1007.98 1007.91 1007.71 1007.51 1007.35 1007.80 1008.04 1008.29 1008.52 1008.67 1008.91 1009.05 1009.16 1009.42 1010.19 1010.20 1010.02 1009.89 1009.80 1009.21 1008.79 1008.53
1015.40 1015.47 1014.99 1014.20 1013.07 1012.03 1011.49 1011.09 1010.77 1010.59 1010.30 1009.88 1009.58 1009.30 1008.54 1007.94 1007.06 1006.84 1006.80 1006.60 1006.57 1006.58 1006.58 1006.51 1006.55 1006.66 1006.64 1006.58 1006.64 1006.61 1006.58 1007.03 1007.17 1007.36 1007.46 1007.36 1007.34 1007.53 1007.70 1007.94 1008.17 1008.32 1008.49 1008.61 1008.76 1008.96 1009.22 1009.31 1009.25 1009.10 1008.85 1008.54 1008.27 1008.21
1014.37 1014.04 1013.57 1012.90 1011.91 1011.24 1011.00 1010.46 1009.92 1009.44 1008.90 1008.66 1008.29 1008.01 1007.72 1007.50 1006.67 1005.65 1005.15 1005.54 1005.68 1005.64 1005.40 1005.52 1005.42 1005.30 1005.50 1005.58 1005.78 1005.98 1006.06 1006.32 1006.56 1006.85 1006.99 1007.00 1007.05 1007.21 1007.41 1007.50 1007.61 1007.82 1007.96 1008.04 1008.20 1008.36 1008.49 1008.53 1008.36 1008.19 1008.08 1007.98 1007.90 1007.85
1013.19 1012.97 1012.73 1012.33 1011.27 1010.24 1009.46 1009.46 1008.85 1008.30 1007.86 1007.30 1006.76 1006.42 1006.29 1006.16 1005.51 1004.47 1004.12 1004.25 1004.14 1004.14 1004.15 1004.31 1004.40 1004.40 1004.48 1004.75 1004.89 1005.13 1005.79 1005.85 1005.93 1006.22 1006.52 1006.70 1006.87 1006.95 1006.89 1006.97 1007.21 1007.40 1007.46 1007.56 1007.66 1007.78 1007.88 1007.85 1007.80 1007.73 1007.71 1007.69 1007.68 1007.77
Wind_Speed
11 12 12 14 15 16 17 17 18 19 20 19 19 19 19 18 18 9 3 4 3 3 6 3 3 1 0 1 2 4 3 2 0 2 2 3 4 3 3 1 2 5 6 5 4 7 13 2 4 7 6 13 14 12
11 12 13 14 15 16 17 17 18 19 20 19 19 18 18 16 16 12 2 2 2 4 4 3 8 11 7 5 3 0 3 2 1 1 2 2 3 3 2 3 1 4 3 0 4 3 5 1 2 8 12 15 12 13
10 12 13 14 15 15 16 17 17 18 19 19 19 18 16 15 14 10 3 4 3 3 4 4 2 1 2 8 4 3 1 0 2 2 1 1 3 2 4 4 4 3 3 2 6 3 7 9 10 11 12 13 11 9
10 11 13 14 15 15 16 16 17 18 19 19 19 18 16 14 12 9 3 2 2 1 3 3 3 4 4 4 5 2 1 4 3 1 1 2 2 3 1 1 3 1 8 7 4 5 6 5 9 11 11 10 9 8
10 11 12 13 14 16 16 17 18 19 20 20 20 18 16 13 11 5 2 1 1 3 3 6 11 2 6 4 6 4 4 4 2 2 3 2 2 3 1 1 4 6 6 6 4 13 1 11 9 8 8 8 7 6
9 11 13 14 15 15 17 18 19 20 21 21 20 18 14 11 7 2 2 3 1 2 2 4 4 3 3 3 5 4 2 2 2 2 1 1 0 3 3 3 1 5 5 5 4 14 7 14 10 7 7 6 5 4
10 11 12 14 15 16 17 18 19 20 21 21 20 17 12 6 2 1 3 3 3 2 2 5 4 0 4 1 2 2 1 1 2 2 2 1 3 3 2 3 4 5 6 4 14 15 11 9 6 6 6 5 5 4
10 11 12 13 14 16 16 17 19 20 22 22 20 13 4 3 4 2 1 1 5 2 2 3 4 3 4 2 3 1 2 2 1 0 3 2 3 2 4 4 6 6 10 14 8 5 10 10 9 6 5 4 1 3
9 10 11 13 14 15 16 18 20 22 23 22 16 3 3 1 0 2 3 6 1 3 3 1 3 2 5 1 1 2 1 3 1 3 2 3 3 5 4 7 12 14 12 15 9 12 11 9 7 6 4 3 3 4
9 10 11 13 14 14 16 17 19 22 24 13 2 2 1 1 12 5 3 2 2 1 1 3 1 3 4 2 1 1 1 1 3 2 2 4 4 4 3 3 7 9 11 15 14 9 8 6 6 6 5 2 2 4
9 10 11 12 14 15 15 16 17 20 8 5 5 3 5 11 2 0 1 2 1 3 3 3 3 3 1 2 1 2 1 1 3 3 3 2 3 0 6 2 9 11 10 10 8 8 7 6 6 5 4 2 1 2
9 10 11 13 14 15 14 13 12 5 3 4 4 5 3 3 1 2 0 1 2 2 2 3 1 3 1 1 3 2 2 1 2 2 2 3 1 4 2 6 11 12 13 11 11 10 8 6 5 4 2 1 2 2
9 10 11 12 14 16 10 10 11 10 6 1 2 3 2 0 3 2 2 1 2 2 1 2 2 1 2 2 1 2 2 4 1 2 2 2 2 2 4 8 10 10 12 11 10 8 7 6 4 3 3 3 3 4
9 10 12 12 13 9 11 13 12 6 1 2 3 5 1 2 2 1 2 3 3 3 5 3 2 0 1 1 3 4 1 2 2 2 2 1 4 4 3 4 8 9 10 9 8 6 6 6 4 3 3 4 4 4
9 11 12 11 5 10 13 14 10 2 1 2 1 3 3 3 3 3 2 3 2 4 2 2 1 3 3 1 2 3 4 2 2 2 1 3 7 5 3 3 4 4 5 6 6 5 5 5 4 3 4 4 4 5
9 11 1 4 10 14 15 6 0 1 1 2 3 3 3 3 2 2 2 3 1 1 1 2 1 1 4 2 3 3 2 3 0 2 1 4 6 5 4 4 3 4 4 3 4 3 4 4 4 3 3 5 5 6
5 3 3 7 13 15 7 1 1 3 2 3 4 4 5 5 6 3 1 2 2 2 1 1 3 1 0 3 3 2 2 1 0 1 3 5 5 5 5 4 4 4 4 4 4 5 4 4 3 4 4 4 5 6
3 3 7 11 10 5 2 1 2 2 4 4 4 1 3 4 5 5 2 2 2 1 1 1 0 2 2 2 2 2 3 2 2 2 2 3 4 4 4 5 5 4 4 4 3 3 3 4 5 4 5 5 6 6
4 7 13 13 6 3 2 1 2 3 4 3 4 4 4 4 5 7 6 4 3 1 1 1 3 3 4 3 2 1 2 2 1 1 1 2 3 4 4 4 4 4 4 3 4 3 3 4 4 4 4 4 5 6
10 13 13 5 5 1 3 2 1 3 4 2 3 4 4 4 3 3 3 3 3 2 3 4 5 3 3 1 2 2 1 2 3 2 2 2 2 4 4 3 3 3 3 3 3 2 3 4 3 4 4 4 5 7
3 2 2 2 1 2 2 2 3 3 4 3 3 3 4 2 4 2 2 3 3 3 4 4 3 2 2 2 2 2 2 3 1 1 2 3 3 2 2 3 3 3 3 3 2 3 4 4 3 3 3 4 4 5
2 4 1 2 2 3 3 4 3 3 3 3 4 3 4 3 2 1 2 3 4 3 3 2 1 1 2 3 3 3 2 3 3 2 3 4 3 3 3 2 3 3 3 3 3 3 3 3 3 3 4 4 4 4
4 1 2 2 3 1 4 2 4 3 4 2 2 3 3 2 0 2 3 3 3 2 2 2 1 1 3 3 3 2 2 1 1 2 1 2 2 2 2 3 3 4 4 4 4 4 3 2 4 4 4 4 4 4
2 2 3 3 4 3 1 3 3 3 3 3 3 4 2 1 1 2 3 2 1 2 4 4 4 4 3 3 3 3 3 3 2 2 3 4 3 3 4 4 4 4 3 3 4 4 4 4 4 5 5 5 3 3
2 2 3 4 3 4 4 4 4 3 4 4 3 3 1 1 2 3 3 2 2 4 4 4 4 4 4 3 2 3 5 4 4 4 3 4 3 3 4 4 4 5 4 4 5 4 3 2 2 3 4 3 4 7
3 5 6 4 3 4 4 4 4 4 3 3 4 1 0 2 3 4 2 1 2 5 6 7 7 5 4 4 3 3 3 4 3 4 2 5 5 5 3 2 2 2 4 5 3 4 1 3 3 3 2 2 3 6
4 5 5 3 3 3 5 5 5 3 3 4 2 4 3 3 4 3 2 2 3 4 6 6 6 6 5 4 4 3 3 5 5 3 1 3 4 5 5 3 1 2 4 5 4 3 2 3 4 4 4 5 4 5
4 3 5 2 4 3 5 4 4 4 3 1 2 4 3 2 1 1 2 1 3 1 4 6 7 6 5 4 3 3 4 4 4 3 4 5 6 5 6 5 4 5 3 4 3 3 3 3 3 4 5 6 7 6
4 2 3 6 5 5 5 5 4 3 1 2 2 2 2 2 2 4 5 2 2 3 5 6 7 6 5 5 5 5 5 4 4 6 7 4 3 4 6 6 5 5 5 5 7 6 4 3 3 5 7 7 8 9
4 5 4 5 6 7 5 7 4 2 2 2 3 4 4 5 5 5 5 6 6 7 7 7 5 7 8 7 6 4 4 4 6 6 5 6 5 2 3 5 7 6 5 5 5 4 4 5 5 5 6 6 6 5
2 4 5 6 6 5 8 9 8 7 6 6 7 8 11 8 7 5 7 6 6 5 6 7 7 7 8 7 7 7 7 5 8 10 10 6 5 4 4 3 4 6 6 7 6 5 5 5 5 6 7 9 6 4
5 8 5 5 4 4 4 5 5 6 7 9 10 7 4 4 6 5 5 6 6 7 8 7 8 9 11 9 7 7 8 5 4 5 8 6 7 4 4 4 4 5 7 9 8 7 7 8 7 8 7 8 5 5
6 5 6 7 5 5 6 6 5 4 5 5 6 8 8 5 7 5 2 7 9 9 8 8 8 8 9 11 11 8 6 7 9 7 8 7 5 4 3 3 4 5 7 7 7 6 7 8 7 7 8 7 5 5
Wind_Direction
336 340 341 341 343 344 345 345 345 346 349 347 348 351 355 357 360 359 318 9 352 306 283 259 302 339 10 357 339 24 227 148 164 168 202 163 215 170 234 148 206 213 198 202 205 232 243 78 157 218 101 116 123 122
334 337 338 339 338 339 342 344 343 343 344 344 344 346 349 352 355 2 303 14 326 231 297 305 278 276 259 286 291 0 11 261 12 99 183 145 177 185 191 216 141 220 292 224 273 15 354 337 50 118 121 113 111 112
331 334 334 337 335 336 339 340 338 337 336 337 340 341 342 344 349 359 306 314 275 301 275 275 255 52 199 221 248 295 189 32 162 347 131 85 235 184 192 206 151 151 175 130 188 106 88 101 105 100 105 104 103 102
327 330 332 334 332 332 333 332 333 334 334 334 333 333 332 332 337 345 309 332 281 301 305 305 339 297 322 203 191 237 96 104 87 223 209 217 242 210 209 38 244 70 162 135 89 141 132 118 115 112 104 104 105 102
323 324 328 330 331 331 332 333 332 333 332 331 330 329 326 324 326 319 242 255 309 327 308 293 307 296 290 230 179 143 154 154 179 203 217 222 121 189 117 232 204 190 159 193 185 168 136 153 141 132 119 112 104 105
318 322 328 329 329 330 331 331 330 329 326 323 325 324 320 319 328 264 221 167 210 328 286 297 343 290 322 173 158 129 120 119 168 223 203 183 19 262 217 233 184 193 207 225 142 151 127 133 137 137 118 115 99 83
318 323 327 329 329 330 331 328 327 325 323 322 321 318 306 294 244 283 6 34 156 285 264 291 289 0 320 45 93 129 89 101 279 137 201 206 171 227 222 227 148 185 187 176 133 125 116 149 142 118 107 107 98 62
317 323 326 328 328 329 327 326 326 324 321 321 320 318 319 166 243 244 69 237 183 273 269 285 279 285 1 190 183 9 175 200 103 227 153 202 153 229 240 192 161 142 134 135 106 101 131 121 116 122 116 123 95 337
309 316 321 325 326 327 327 328 328 324 320 320 317 148 163 228 56 72 356 143 234 295 302 282 294 353 352 42 351 154 282 218 78 232 187 197 180 223 233 183 179 168 160 149 112 103 114 127 134 143 158 176 265 314
304 312 319 321 323 324 326 329 330 323 321 321 354 283 214 62 319 288 144 194 184 162 213 261 289 279 320 357 145 245 261 236 225 124 143 225 228 252 356 277 205 159 134 142 126 129 130 146 170 184 198 200 260 319
301 307 313 317 321 324 327 333 334 331 357 12 6 335 320 313 255 258 245 246 143 233 184 244 241 284 43 303 299 346 7 5 245 117 253 200 234 68 348 198 166 151 150 141 129 136 148 146 167 170 174 174 218 288
297 306 310 315 318 319 321 326 336 356 338 300 302 290 283 293 21 283 301 212 226 288 202 245 234 217 288 259 269 111 337 29 272 122 242 245 85 316 263 157 150 143 141 130 132 131 130 138 149 154 165 204 211 250
289 297 301 310 318 321 319 321 326 312 308 209 232 258 352 322 38 318 21 118 306 222 355 319 232 236 198 224 67 61 253 233 190 190 232 302 11 52 121 131 128 134 132 127 129 131 139 145 148 158 171 195 214 232
288 295 299 304 309 307 321 320 326 333 327 329 332 321 284 268 244 247 338 303 298 276 319 321 240 310 2 53 80 309 31 245 217 231 255 139 164 132 105 117 133 138 141 142 147 150 160 160 155 174 206 210 230 233
291 295 302 303 327 323 320 320 320 214 253 280 296 247 238 300 270 272 262 285 255 278 314 227 131 39 7 342 177 246 241 243 233 241 304 158 153 141 125 97 109 149 166 163 158 166 167 163 179 209 220 226 237 251
303 309 241 324 330 322 321 321 165 139 231 247 236 262 240 270 286 294 249 276 257 213 274 284 143 195 202 245 235 222 201 228 64 239 358 146 159 166 182 215 216 208 197 181 167 178 186 187 204 221 227 236 247 258
302 249 290 323 329 321 323 242 222 218 251 232 241 232 264 278 264 264 241 270 302 268 239 235 231 280 247 232 238 216 259 57 197 217 167 185 182 202 202 195 196 202 176 172 189 204 204 198 205 217 245 245 253 265
243 274 309 323 331 310 307 247 237 245 252 232 249 240 212 242 277 287 249 201 273 254 241 260 35 253 259 244 230 208 228 262 245 244 207 207 208 204 196 207 189 183 187 186 202 201 201 206 212 233 263 282 287 278
263 293 300 304 297 310 320 234 228 268 262 278 263 253 256 261 251 263 277 269 241 253 245 223 241 227 240 225 286 248 242 232 263 145 213 212 187 187 174 167 164 172 186 197 209 222 210 217 251 260 278 278 272 284
282 287 287 293 165 275 264 240 245 264 267 324 266 255 247 256 305 268 253 187 175 198 210 220 230 226 237 190 221 264 257 196 186 167 136 127 138 157 157 164 167 170 192 210 227 230 219 236 243 251 251 279 287 289
303 258 286 171 152 224 268 291 251 256 298 268 299 276 274 252 254 246 215 161 188 221 232 225 245 234 215 237 241 226 197 204 231 305 89 149 174 184 183 219 190 197 209 190 212 210 222 250 272 286 284 291 278 276
277 323 258 208 250 205 255 203 270 305 262 279 284 238 268 266 252 207 131 210 238 235 208 202 229 151 188 191 183 216 84 122 122 128 128 121 148 183 199 178 191 203 220 238 252 266 273 279 275 280 283 299 302 317
302 212 240 237 263 183 261 186 253 221 257 259 259 257 232 241 167 169 250 230 261 194 187 197 141 165 147 129 138 126 173 180 191 183 182 212 241 228 187 195 214 244 245 225 228 242 269 285 265 259 268 278 325 336
269 250 244 247 206 254 218 239 223 252 247 239 236 261 225 261 148 235 261 250 173 144 179 168 172 153 152 168 182 191 199 203 198 200 204 219 228 222 221 239 235 231 254 258 236 251 271 289 275 254 249 281 300 324
245 233 203 246 270 254 239 242 222 227 246 215 246 249 180 251 245 249 257 257 191 183 176 172 194 213 197 184 197 214 201 212 220 237 202 212 221 239 230 225 232 239 220 210 220 230 261 277 270 272 280 280 317 328
228 204 192 207 219 221 221 256 221 222 224 237 228 264 223 247 247 249 241 227 204 184 183 189 188 187 216 224 216 200 209 192 212 228 219 207 219 241 257 249 266 193 192 212 247 225 181 339 321 287 277 271 272 306
233 241 205 233 274 288 268 255 259 268 260 226 193 189 208 230 223 244 278 225 220 200 192 196 198 205 216 196 211 215 198 198 227 301 138 190 229 239 250 285 47 106 167 193 213 238 294 302 291 292 311 307 303 308
243 282 223 184 214 227 272 285 267 236 237 198 188 206 235 249 254 260 261 291 253 223 204 203 213 227 237 233 240 223 222 224 237 228 242 231 222 224 222 230 226 172 197 188 190 215 235 242 241 272 290 301 307 306
226 208 212 241 227 235 227 230 251 252 203 199 249 260 249 231 255 293 299 244 198 214 210 207 218 217 236 239 238 234 230 226 219 224 239 256 236 203 198 207 200 194 187 182 194 230 240 251 261 280 296 299 303 301
221 197 234 230 218 222 225 208 239 267 239 284 307 286 266 260 265 270 265 252 233 227 225 227 224 202 223 229 249 239 202 207 215 234 242 244 262 154 171 192 203 205 197 198 203 193 190 233 236 251 270 288 295 298
191 188 223 238 257 248 245 262 268 270 264 261 258 264 277 291 292 247 235 244 241 234 221 223 221 219 222 222 231 250 259 206 222 228 241 261 262 236 208 194 208 214 211 217 221 229 243 252 266 284 296 311 305 277
205 213 222 231 248 248 262 231 237 246 255 249 253 233 245 240 258 260 208 192 209 228 226 222 218 217 212 221 227 239 243 262 237 228 239 234 246 247 223 223 213 203 208 214 221 233 245 261 282 295 306 314 288 289
215 219 225 259 255 240 221 210 223 245 217 232 235 238 232 237 252 258 201 210 222 233 235 223 229 233 220 213 221 229 226 243 255 241 232 238 249 236 216 191 185 199 202 212 215 221 238 259 277 298 318 302 277 308